[[{"header":{"parameterUnit":"m.s-1","parameterCategory":1,"la1":30.2991,"la2":30.254,"lo1":-89.0895,"lo2":-89.0444,"dy":0.0017,"dx":0.0017,"nx":28,"ny":28,"refTime":"2025-07-21T21:00:00:Z","depth":0,"parameterNumber":2,"parameterNumberName":"U-component_of_WINDS"},"data":[0,0,0,0,0,0,0,0,0,0,0,0,0,0,0,0,0,0,0,0,0,0,0,0,0,0,0,0,0,0,0,0,0,0,0,0,0,0,0,0,0,0,0,0,0,0,0,0,0,0,0,0,0,0,0,0,0,0,0.5357,0.5355,0,0.5174,0.5172,0.517,0.4999,0.4997,0.4995,0.4993,0.4798,0.4795,0.4791,0,0,0,0,0,0,0,0,0,0,0,0,0,0.5554,0.5551,0.5357,0.5355,0.5353,0.5175,0.5172,0.517,0.5,0.4997,0.4995,0.4992,0.4799,0.4795,0.4791,0,0,0,0,0,0,0,0,0,0,0,0,0,0.5429,0.555,0.5357,0.5247,0.5235,0.5175,0.5172,0.5169,0.5,0.4997,0.4994,0.4991,0.48,0.4795,0.479,0.4823,0,0,0.4776,0.4773,0,0,0,0,0,0,0,0,0.5437,0.5422,0.5265,0.5254,0.5241,0.5107,0.517,0.5053,0.5001,0.5089,0.4993,0.499,0.4902,0.4889,0.4861,0.4814,0.4806,0.4775,0.4772,0.477,0.4769,0,0,0,0,0,0,0,0.5446,0.5429,0.5284,0.5263,0.5248,0.5204,0.5183,0.5147,0.5015,0.5081,0.5068,0.505,0.4895,0.4866,0.4855,0.4803,0.4775,0.4771,0.4768,0.4766,0.4776,0.4779,0,0,0,0,0,0,0.5472,0.5438,0.529,0.5279,0.5333,0.5203,0.518,0.5153,0.5015,0.4992,0.5053,0.5042,0.4876,0.4861,0.4848,0.4879,0.477,0.4765,0.4763,0.4773,0.4776,0.478,0,0,0,0,0,0,0.5477,0.5461,0.5298,0.5355,0.5331,0.5203,0.5174,0.5151,0.5122,0.4994,0.4969,0.5048,0.4873,0.4855,0.4832,0.487,0.4763,0.4759,0.4769,0.4774,0.4778,0.4941,0,0,0,0,0,0,0.5483,0.5463,0.5475,0.5357,0.5328,0.5287,0.5177,0.515,0.5115,0.51,0.4983,0.496,0.4869,0.484,0.4827,0.4861,0.4755,0.4765,0.4771,0.4777,0.4932,0.4951,0.4967,0,0,0,0,0,0.5491,0.5526,0.5477,0.546,0.5341,0.5289,0.5273,0.517,0.5119,0.5129,0.5048,0.4964,0.4868,0.4839,0.4823,0.4856,0.4762,0.4769,0.4776,0.4924,0.4947,0.4967,0,0,0,0,0,0,0.5648,0.5508,0.5452,0.545,0.5384,0.5261,0.5271,0.5198,0.5142,0.513,0.5003,0.4978,0.497,0.491,0.488,0.4882,0.4804,0.4808,0.4921,0.4942,0.496,0.4974,0.4751,0,0,0,0,0,0.5684,0.5656,0.5533,0.5543,0.5513,0.5399,0.5372,0.53,0.5224,0.5194,0.511,0.5038,0.4992,0.4963,0.4913,0.4923,0.4895,0.4938,0.4955,0.4971,0.4976,0.4978,0.4996,0.4803,0.4803,0.4803,0,0,0.5755,0.5675,0.5664,0.5573,0.5513,0.5486,0.5375,0.535,0.5328,0.5188,0.5163,0.51,0.5011,0.5006,0.4998,0.4956,0.5023,0.498,0.4993,0.4989,0.4988,0.5006,0.5022,0.4808,0.4807,0.4807,0,0,0.587,0.5807,0.581,0.5753,0.5665,0.5589,0.5591,0.548,0.5434,0.5407,0.5303,0.5274,0.5196,0.5139,0.5099,0.5199,0.512,0.5185,0.5278,0.5282,0.5297,0.531,0.5347,0.5362,0.5191,0.5191,0.5192,0,0.5969,0.5926,0.5819,0.5802,0.5766,0.5643,0.5645,0.5594,0.5493,0.5471,0.5425,0.5328,0.5259,0.524,0.5265,0.5236,0.5233,0.5198,0.5304,0.5316,0.5326,0.536,0.5374,0.52,0.5199,0.5198,0.5197,0,0.6052,0.6024,0.6036,0.5947,0.5912,0.5905,0.5797,0.5774,0.5706,0.5635,0.561,0.5524,0.5456,0.5446,0.5377,0.5417,0.5394,0.5328,0.5247,0.5355,0.5385,0.5397,0.5213,0.5209,0.5207,0.5205,0,0,0.6259,0.6115,0.6122,0.6081,0.5977,0.5952,0.594,0.5877,0.5861,0.5796,0.5782,0.5722,0.5662,0.5617,0.5541,0.5545,0.5632,0.5478,0.5474,0.5511,0.5673,0.5724,0.5741,0.5579,0.5581,0.5583,0.5681,0,0.6358,0.6331,0.6237,0.6238,0.6211,0.6097,0.6085,0.602,0.5955,0.5921,0.5846,0.5807,0.573,0.5703,0.5701,0.5622,0.5662,0.5613,0.5564,0.5564,0.5591,0.5755,0.5808,0.5905,0.5691,0.5693,0.5694,0,0.6469,0.6417,0.6417,0.6318,0.6303,0.6295,0.6232,0.6202,0.6126,0.6078,0.6031,0.5948,0.5927,0.5853,0.5823,0.5792,0.5766,0.5724,0.5725,0.5717,0.5636,0.5752,0.5933,0.5948,0.5711,0.571,0.5709,0,0.6623,0.6552,0.6544,0.6512,0.6395,0.6393,0.6344,0.6265,0.6235,0.6179,0.6158,0.61,0.6068,0.6023,0.5926,0.5881,0.5908,0.5824,0.5867,0.587,0.5877,0.5878,0.6057,0.586,0.586,0.586,0.586,0,0.6743,0.6748,0.6612,0.6607,0.6609,0.6501,0.6505,0.6444,0.6376,0.6356,0.6252,0.6235,0.6108,0.6076,0.5999,0.5987,0.5973,0.5933,0.5912,0.5943,0.5948,0.5924,0.5915,0.5864,0.5863,0.5862,0.5861,0,0.6915,0.6823,0.6807,0.67,0.6673,0.668,0.6587,0.6577,0.6507,0.6484,0.6472,0.636,0.6318,0.6218,0.6147,0.6095,0.6104,0.6066,0.6131,0.6118,0.6167,0.6165,0.6337,0.6355,0.6147,0.6149,0.6151,0,0.6998,0.7,0.6895,0.6876,0.6833,0.6803,0.6773,0.6667,0.664,0.6556,0.6557,0.6507,0.6462,0.64,0.6311,0.6257,0.6218,0.6282,0.6208,0.624,0.622,0.6222,0.6222,0.6298,0.6301,0.6303,0.6305,0,0.7156,0.7113,0.7075,0.7024,0.6992,0.6945,0.6892,0.6882,0.6763,0.6737,0.6695,0.6661,0.6592,0.6544,0.6478,0.6424,0.6346,0.633,0.6337,0.6368,0.6406,0.6388,0.6176,0.6326,0.6324,0.6322,0.6321,0.632,0.7286,0.7284,0.7212,0.7174,0.7124,0.7078,0.7065,0.6996,0.696,0.6899,0.6837,0.6803,0.6727,0.6631,0.6584,0.6553,0.6513,0.6523,0.6525,0.653,0.6544,0.6412,0.654,0.654,0.6539,0.6538,0.6538,0,0.7441,0.739,0.7357,0.7289,0.726,0.7192,0.7131,0.7111,0.7082,0.7021,0.6981,0.6934,0.6888,0.6798,0.6743,0.6737,0.6699,0.6726,0.6726,0.6715,0.6582,0.6583,0.6758,0.6758,0.6758,0.6758,0.6757,0.6757,0.7518,0.7511,0.746,0.7428,0.7375,0.7343,0.7315,0.7272,0.7223,0.7177,0.714,0.7083,0.701,0.695,0.6905,0.6879,0.6865,0.6904,0.6867,0.6745,0.6724,0.6704,0.6704,0.6901,0.6901,0.7002,0.7003,0.7003]},{"header":{"parameterUnit":"m.s-1","parameterCategory":1,"la1":30.2991,"la2":30.254,"lo1":-89.0895,"lo2":-89.0444,"dy":0.0017,"dx":0.0017,"nx":28,"ny":28,"refTime":"2025-07-21T21:00:00:Z","depth":0,"parameterNumber":3,"parameterNumberName":"V-component_of_WINDS"},"data":[0,0,0,0,0,0,0,0,0,0,0,0,0,0,0,0,0,0,0,0,0,0,0,0,0,0,0,0,0,0,0,0,0,0,0,0,0,0,0,0,0,0,0,0,0,0,0,0,0,0,0,0,0,0,0,0,0,0,-0.8558,-0.8558,0,-0.853,-0.853,-0.8529,-0.8552,-0.8553,-0.8554,-0.8555,-0.8525,-0.8523,-0.8522,0,0,0,0,0,0,0,0,0,0,0,0,0,-0.8634,-0.8632,-0.8558,-0.8558,-0.8558,-0.853,-0.853,-0.8529,-0.8552,-0.8553,-0.8554,-0.8555,-0.8526,-0.8524,-0.8522,0,0,0,0,0,0,0,0,0,0,0,0,0,-0.8603,-0.8631,-0.8558,-0.8566,-0.8566,-0.853,-0.853,-0.8529,-0.8551,-0.8553,-0.8554,-0.8556,-0.8526,-0.8524,-0.8521,-0.8477,0,0,-0.8514,-0.8513,0,0,0,0,0,0,0,0,-0.8604,-0.86,-0.8565,-0.8565,-0.8565,-0.8546,-0.8545,-0.8512,-0.8551,-0.8557,-0.8555,-0.8556,-0.8531,-0.8528,-0.852,-0.8476,-0.8474,-0.8513,-0.8512,-0.8511,-0.851,0,0,0,0,0,0,0,-0.8606,-0.8601,-0.8547,-0.8564,-0.8565,-0.8571,-0.8568,-0.8539,-0.8536,-0.8556,-0.8558,-0.8554,-0.8531,-0.8522,-0.8519,-0.8474,-0.8513,-0.8511,-0.851,-0.8509,-0.8397,-0.8396,0,0,0,0,0,0,-0.8608,-0.8603,-0.8548,-0.8546,-0.8589,-0.8568,-0.8565,-0.8551,-0.8536,-0.8536,-0.8553,-0.8556,-0.8526,-0.8522,-0.8518,-0.8468,-0.8511,-0.8508,-0.8507,-0.8399,-0.8397,-0.8395,0,0,0,0,0,0,-0.8609,-0.8603,-0.8549,-0.8575,-0.8569,-0.8565,-0.8549,-0.8549,-0.854,-0.8534,-0.8534,-0.8544,-0.8527,-0.8522,-0.8488,-0.8468,-0.8507,-0.8505,-0.84,-0.8398,-0.8396,-0.8367,0,0,0,0,0,0,-0.8611,-0.8603,-0.8585,-0.8574,-0.8567,-0.8519,-0.8548,-0.8548,-0.8536,-0.8539,-0.8525,-0.8525,-0.8527,-0.8492,-0.8486,-0.8465,-0.8503,-0.8402,-0.8399,-0.8397,-0.8369,-0.8364,-0.8359,0,0,0,0,0,-0.8614,-0.8577,-0.8584,-0.8578,-0.8545,-0.8518,-0.8513,-0.8517,-0.8534,-0.8517,-0.8514,-0.8525,-0.8471,-0.8488,-0.8481,-0.8459,-0.8403,-0.84,-0.8397,-0.8372,-0.8365,-0.8359,0,0,0,0,0,0,-0.8584,-0.8575,-0.8583,-0.8542,-0.8531,-0.8521,-0.85,-0.8509,-0.8492,-0.8496,-0.8501,-0.8498,-0.8464,-0.8458,-0.8478,-0.8418,-0.844,-0.8435,-0.8423,-0.8416,-0.8411,-0.8414,-0.8501,0,0,0,0,0,-0.8573,-0.8551,-0.8545,-0.8509,-0.8503,-0.8502,-0.849,-0.8495,-0.8483,-0.8478,-0.8472,-0.8461,-0.8442,-0.8428,-0.841,-0.8369,-0.8368,-0.8351,-0.8345,-0.8341,-0.8337,-0.8319,-0.8312,-0.8385,-0.8385,-0.8385,0,0,-0.8548,-0.8541,-0.8527,-0.8503,-0.8494,-0.8473,-0.8498,-0.8473,-0.8458,-0.8474,-0.8443,-0.8439,-0.8427,-0.839,-0.8374,-0.8384,-0.8317,-0.8337,-0.8333,-0.8332,-0.8315,-0.8308,-0.8302,-0.8382,-0.8383,-0.8383,0,0,-0.8494,-0.8486,-0.8457,-0.8449,-0.8437,-0.8437,-0.8431,-0.8421,-0.8419,-0.8388,-0.8402,-0.8384,-0.8349,-0.8341,-0.8333,-0.828,-0.8291,-0.8274,-0.8247,-0.8229,-0.8223,-0.8218,-0.8202,-0.8196,-0.827,-0.827,-0.827,0,-0.8466,-0.8434,-0.844,-0.8416,-0.8406,-0.8422,-0.8394,-0.8386,-0.8368,-0.8361,-0.8373,-0.8334,-0.8326,-0.829,-0.8278,-0.8269,-0.8263,-0.8276,-0.8223,-0.8218,-0.8214,-0.8199,-0.8192,-0.8268,-0.8268,-0.8269,-0.8269,0,-0.8401,-0.8379,-0.8357,-0.8342,-0.833,-0.8303,-0.8307,-0.8294,-0.83,-0.83,-0.8271,-0.8263,-0.8245,-0.8237,-0.8241,-0.8202,-0.821,-0.8222,-0.8245,-0.8205,-0.8191,-0.8185,-0.8266,-0.8266,-0.8267,-0.8267,0,0,-0.8325,-0.8317,-0.8309,-0.8304,-0.8294,-0.8277,-0.8253,-0.8237,-0.8227,-0.8215,-0.8196,-0.8169,-0.8182,-0.8172,-0.8177,-0.8161,-0.8124,-0.8176,-0.8176,-0.8169,-0.8084,-0.8076,-0.8069,-0.8132,-0.813,-0.813,-0.8086,0,-0.8273,-0.8231,-0.8238,-0.8198,-0.818,-0.8196,-0.8176,-0.8168,-0.8168,-0.8153,-0.8154,-0.8135,-0.8152,-0.8148,-0.8132,-0.8132,-0.8108,-0.8135,-0.8116,-0.8115,-0.812,-0.8061,-0.8051,-0.801,-0.808,-0.8079,-0.8079,0,-0.8205,-0.8193,-0.8152,-0.8149,-0.8141,-0.8123,-0.8111,-0.8095,-0.8088,-0.809,-0.8081,-0.809,-0.8068,-0.8091,-0.8062,-0.808,-0.8073,-0.8072,-0.8071,-0.807,-0.8095,-0.8061,-0.7997,-0.7992,-0.807,-0.807,-0.8071,0,-0.8157,-0.8131,-0.8104,-0.8099,-0.8093,-0.8081,-0.8078,-0.8072,-0.8063,-0.8053,-0.8048,-0.8034,-0.8027,-0.8017,-0.8024,-0.8039,-0.7995,-0.8017,-0.7997,-0.7997,-0.7987,-0.7988,-0.7924,-0.798,-0.798,-0.798,-0.798,0,-0.8098,-0.8073,-0.8083,-0.8066,-0.804,-0.8049,-0.8022,-0.8021,-0.8017,-0.8002,-0.8015,-0.8001,-0.8009,-0.7996,-0.8,-0.7978,-0.7974,-0.7976,-0.7977,-0.7975,-0.7975,-0.7971,-0.7975,-0.7979,-0.7979,-0.7979,-0.798,0,-0.804,-0.8045,-0.8018,-0.8016,-0.8015,-0.7996,-0.7995,-0.7981,-0.7984,-0.7964,-0.796,-0.7964,-0.795,-0.7955,-0.7939,-0.7942,-0.7914,-0.7919,-0.7917,-0.7919,-0.79,-0.7902,-0.7831,-0.7824,-0.7884,-0.7883,-0.7882,0,-0.8003,-0.7984,-0.7982,-0.7974,-0.7971,-0.7956,-0.7948,-0.7957,-0.7949,-0.7942,-0.7929,-0.7916,-0.7906,-0.7882,-0.7884,-0.7873,-0.7879,-0.7855,-0.7877,-0.7877,-0.7881,-0.7883,-0.7883,-0.785,-0.785,-0.7849,-0.7849,0,-0.7937,-0.7942,-0.793,-0.792,-0.7911,-0.7903,-0.7897,-0.7889,-0.7899,-0.7888,-0.7875,-0.7867,-0.7853,-0.7841,-0.7832,-0.783,-0.7842,-0.7842,-0.7837,-0.7835,-0.7836,-0.7838,-0.7907,-0.7843,-0.7844,-0.7844,-0.7845,-0.7845,-0.789,-0.7876,-0.7873,-0.7861,-0.7858,-0.7853,-0.784,-0.7843,-0.7831,-0.7821,-0.7827,-0.7812,-0.7809,-0.7798,-0.7796,-0.7785,-0.7794,-0.7786,-0.7785,-0.7783,-0.7782,-0.7837,-0.7783,-0.7783,-0.7783,-0.7783,-0.7783,0,-0.7827,-0.7827,-0.7816,-0.7808,-0.7799,-0.7812,-0.7807,-0.7799,-0.7785,-0.7782,-0.7773,-0.7759,-0.7749,-0.7751,-0.7742,-0.7733,-0.7738,-0.773,-0.7732,-0.7732,-0.7773,-0.7779,-0.7727,-0.7727,-0.7727,-0.7727,-0.7727,-0.7727,-0.7794,-0.7772,-0.7777,-0.7755,-0.7755,-0.7741,-0.7737,-0.7734,-0.7731,-0.7716,-0.7707,-0.7709,-0.7709,-0.7701,-0.7693,-0.7694,-0.7691,-0.7681,-0.7685,-0.7723,-0.7729,-0.7734,-0.774,-0.768,-0.768,-0.7645,-0.7645,-0.7645]}]]